Location: ???????????
(55.5758°N, 38.4970°E)
Time: 19:10:26
(UTC+00:00)

SJ 16-02 - Pass Details

Date: 15 November 2025
Orbit: 585 x 594 km, 75.0° (Epoch: 14 December)

Event Time Altitude Azimuth Distance (km) Brightness Sun altitude
Exits shadow 02:16:02 39° 189° (S) 900 2.0 -22.9°
Drops below altitude 10° 02:18:51 10° 170° (S) 1,913 4.0 -22.5°
Sets 02:21:04 0° 167° (SSE) 2,808 4.9 -22.1°
